Location: ????????
(55.0559°N, 39.1270°E)
Time: 08:16:05
(UTC+00:00)

Cosmos 2219 Rocket - Pass Details

Date: 15 November 2025
Orbit: 825 x 846 km, 71.0° (Epoch: 14 December)

Event Time Altitude Azimuth Distance (km) Brightness Sun altitude
Exits shadow 01:02:59 33° 14° (NNE) 1,401 3.5 -32.8°
Drops below altitude 10° 01:06:10 10° 30° (NNE) 2,482 5.1 -32.4°
Sets 01:08:41 0° 35° (NE) 3,421 6.0 -32.0°
